Regional Weather Roundup
Issued by NWS

Home | Current Version | Previous Version | Graphics & Text | Print | Product List | Glossary On
Versions: 1 2 3 4 5 6 7 8 9 10 11 12 13 14 15 16 17 18 19 20 21 22 23 24 25 26 27
000
ASUS45 KBOU 250207
RWRCO

WEATHER ROUNDUP FOR COLORADO
NATIONAL WEATHER SERVICE DENVER/BOULDER CO
800 PM MDT SUN JUL 24 2016

NOTE: "FAIR" INDICATES FEW OR NO CLOUDS BELOW 12000 FEET WITH NO
SIGNIFICANT WEATHER AND/OR OBSTRUCTIONS TO VISIBILITY.

COZ001>005-013-030-031-250300-
...NORTHWEST COLORADO...

CITY           SKY/WX    TMP DP  RH WIND       PRES   REMARKS
CRAIG          FAIR      82  40  22 NE7       30.17R
HAYDEN         FAIR      77  43  29 E10       30.21R
MEEKER         FAIR      82  40  22 NE5       30.17S
MOUNT WERNER   NOT AVBL
STEAMBOAT SPGS FAIR      77  42  28 NE5       30.24S
WALDEN         FAIR      70  39  32 SE6       30.36S
$$

COZ006>008-011-250300-
...WEST CENTRAL VALLEYS...

CITY           SKY/WX    TMP DP  RH WIND       PRES   REMARKS
GRAND JUNCTION FAIR      94  33  11 S10       30.01R
MONTROSE       FAIR      87  43  21 S3        30.13S
EAGLE          FAIR      77  41  27 NE9       30.25R
RIFLE          FAIR      89  40  17 SE9       30.09R
DELTA          FAIR      92  35  13 CALM      30.08R
NUCLA          FAIR     N/A N/A N/A E8        30.17R
$$

COZ017>023-064>068-250300-
...SOUTHWEST COLORADO...

CITY           SKY/WX    TMP DP  RH WIND       PRES   REMARKS
DURANGO        FAIR      78  43  28 N3        30.24R
CORTEZ         FAIR      85  43  22 E14       30.14R
PAGOSA SPRINGS FAIR      76  33  20 W5        30.33R
TELLURIDE      FAIR      68  42  39 CALM      30.47R
WOLF CREEK PAS MOCLDY    55  30  38 N6        30.72R
$$

COZ009-010-012-014-032>034-037-058>063-250300-
...CENTRAL COLORADO...

CITY           SKY/WX    TMP DP  RH WIND       PRES   REMARKS
ASPEN          FAIR      71  43  36 SW5       30.33S
BUENA VISTA    FAIR      75  40  28 S7        30.33R
COPPER MTN     MOCLDY    59  32  36 CALM      30.72S
BERTHOUD PASS  FAIR      50  36  57 NW16G25   30.74R
COTTONWOOD PAS FAIR      70  36  28 CALM      30.50R
GUNNISON       FAIR      77  36  22 N5        30.33R
KREMMLING      FAIR      70  46  43 E3        30.34S
LEADVILLE      FAIR      62  33  33 N13G21    30.53R
SALIDA         FAIR      78  41  26 SE10G18   30.35S
SUNLIGHT       FAIR      64  34  32 CALM      30.61S
WILKERSON PASS TSTM      50  43  76 E7G20     30.67R
$$

COZ069>075-250300-
...SAN LUIS VALLEY/SANGRE DE CRISTO MOUNTAINS...

CITY           SKY/WX    TMP DP  RH WIND       PRES   REMARKS
ALAMOSA        FAIR      76  42  29 SW5       30.29R
LA VETA PASS   FAIR      55  45  67 CALM      30.54S
SAGUACHE       FAIR      73  41  31 NW14      30.32R
$$

COZ035-036-038>040-250300-
...NORTHERN COLORADO FRONT RANGE...

CITY           SKY/WX    TMP DP  RH WIND       PRES   REMARKS
DENVER INTL AP MOCLDY    72  56  57 SE15      30.19R
DMNS CITY PARK   N/A     73  53  49 SE7G16    30.19S
AURORA         PTCLDY    71  56  58 E15G26    30.21S
FRONT RANGE AP MOCLDY    73  57  56 E25G31    30.20F
ERIE MUNI ARPT FAIR      74  51  43 CALM      30.20R
BOULDER MUN AP FAIR      73  52  46 CALM      30.22R
CENTENNIAL     FAIR      72  52  49 SE10      30.22R
BROOMFIELD     MOCLDY    75  48  38 SE3       30.24R
LONGMONT       FAIR      73  55  52 N3        30.22R
$$

COZ041-046-047-076>085-087-088-250300-
...PIKES PEAK/PALMER DIVIDE AND SOUTHERN FOOTHILLS...

CITY           SKY/WX    TMP DP  RH WIND       PRES   REMARKS
COLO. SPRINGS  MOCLDY    72  54  53 SE20G29   30.28R
A. F. ACADEMY  MOCLDY    75  46  35 S12       30.28R
SCHRIEVER AFB  NOT AVBL
ELLICOTT       FAIR     N/A N/A N/A S13       30.27R
FALCON         NOT AVBL
FORT CARSON    NOT AVBL
LIMON          FAIR      70  56  61 NE9       30.25R
MONUMENT HILL  FAIR      70  45  40 SE3       30.33R
TRINIDAD       NOT AVBL
$$

COZ042>045-048>051-090-091-250300-
...NORTHEAST COLORADO...

CITY           SKY/WX    TMP DP  RH WIND       PRES   REMARKS
GREELEY ARPT   FAIR      68  55  64 SE18G24   30.20R
AKRON          LGT RAIN  62  58  86 E28G49    30.14F
BURLINGTON     LGT RAIN  78  64  61 SE10      30.14R
WRAY           NOT AVBL
STERLING       FAIR      68  59  73 SE20G29   30.11R
HOLYOKE          N/A     66  63  88 W16       30.23F THUNDER
FORT MORGAN    FAIR      62  58  89 E12       30.18F
$$

COZ086-089-092>099-250300-
...SOUTHEAST COLORADO...

CITY           SKY/WX    TMP DP  RH WIND       PRES   REMARKS
PUEBLO         FAIR      78  57  48 E8        30.16R
LA JUNTA       TSTM      72  61  68 SW31G41   30.09F
LAMAR          FAIR      84  62  47 W18       30.09R
SPRINGFIELD      N/A     77  55  46 NW7       30.13R
$$




USA.gov is the U.S. government's official web portal to all federal, state and local government web resources and services.